Regional Weather Roundup
Issued by NWS Green Bay, WI

Home | Current Version | Previous Version | Graphics & Text | Print | Product List | Glossary Off
Versions: 1 2 3 4 5 6 7 8 9 10 11 12 13 14 15 16 17 18 19 20 21 22 23 24 25 26 27 28 29 30 31 32 33 34 35 36 37 38 39 40 41 42 43 44 45 46 47 48 49 50

000
ASUS43 KGRB 301300
RWRGRB

NORTH-CENTRAL AND NORTHEAST WISCONSIN REGIONAL WEATHER ROUNDUP
NATIONAL WEATHER SERVICE GREEN BAY WI
800 AM CDT SAT MAY 30 2015

WIZ005-009-010>012-018-019-301400-
NORTH CENTRAL WISCONSIN

CITY           SKY/WX    TMP DP  RH WIND       PRES   REMARKS
IRONWOOD       CLOUDY    45  43  93 N8        30.17R
MANITOWISH WTR NOT AVBL
ARBOR VITAE    NOT AVBL
EAGLE RIVER    NOT AVBL
LAND O LAKES   NOT AVBL
RHINELANDER    LGT RAIN  50  47  89 NE9       30.11R FOG
PHILLIPS       NOT AVBL
ANTIGO         NOT AVBL
TOMAHAWK       NOT AVBL
MERRILL        NOT AVBL
$$

WIZ013-073-301400-
NORTHEAST WISCONSIN

CITY           SKY/WX    TMP DP  RH WIND       PRES   REMARKS
IRON MOUNTAIN  PTSUNNY   50  41  71 N17       30.11R
MARINETTE      CLOUDY    50  45  81 NE14      30.08R
$$

WIZ017-030-035>037-045-301400-
CENTRAL WISCONSIN

CITY           SKY/WX    TMP DP  RH WIND       PRES   REMARKS
MEDFORD        NOT AVBL
WAUSAU         CLOUDY    54  49  83 VRB6G16   30.07R
MOSINEE        LGT RAIN  54  52  94 NE9       30.09R
MARSHFIELD     CLOUDY    55  49  80 NE12      30.08R
WISC RAPIDS    CLOUDY    55  48  77 E10       30.08R
STEVENS POINT  NOT AVBL
WAUPACA        NOT AVBL
SHAWANO        NOT AVBL
CLINTONVILLE   NOT AVBL
$$

WIZ038-039-048-051-301400-
FOX VALLEY

CITY           SKY/WX    TMP DP  RH WIND       PRES   REMARKS
NWS GREEN BAY  LGT RAIN  53  50  89 NE13      30.08R FOG
APPLETON       LGT RAIN  52  50  93 NE17G28   30.06R FOG
OSHKOSH        CLOUDY    54  50  86 NE21G32   30.05R
FOND DU LAC    LGT RAIN  55  52  89 NE15G22   30.05R FOG
$$

WIZ022-050-052-301400-
EAST CENTRAL WISCONSIN

CITY           SKY/WX    TMP DP  RH WIND       PRES   REMARKS
STURGEON BAY   CLOUDY    50  45  81 N13       30.10R
MANITOWOC      LGT RAIN  50  49  96 NE14G20   30.06R FOG
SHEBOYGAN      LGT RAIN  51  48  89 NE16G30   30.04R
$$

LMZ563-521-522-541>543-301400-
LAKESHORE

STATION/POSITION TIME  TEMP    WIND        PRES    VSBY  WAVE
                       AIR SEA DIR/SP/G                  HT/PER
                 (UTC) (F)     (DEG/KT/KT) (MB)    (MI)  (FT/S)
SHEBOYGAN LKSHOR 1200   48      10/ 19/ 20 1016.9R
KEWAUNEE LKSHORE 1200   48      20/  7/ 12 1016.5R
ALGOMA MARINA    1223          350/  9/ 14   N/A
NORTHPORT PIER   1200   49     350/ 21/ 24 1017.9R
N MID LAKE BUOY  1150   41 37  330/  8/ 10 1017.5R         1/ 3
SISTER BAY LKSHO 1248   50      10/ 13/ 18   N/A
STURGEON BAY CG  1155   50     350/  4     1017.5   3 1/2  1
CHAMBERS ISLAND  1200   51     350/ 15/ 18 1017.9R
MENOMINEE LKSHOR 1200   51      10/ 12/ 13 1018.5R
$$


USA.gov is the U.S. government's official web portal to all federal, state and local government web resources and services.